User: anonymous   Login
Location: Albany
(35.0000°S, 118.0000°E)
Time: 07:48:38
(UTC-05:00)
Language:

Cosmos 1758 Rocket - Orbit

View from above orbital plane
View from above orbital plane
View from above satellite
View from above satellite

Ground track
Ground track

The orbit data is extracted from the following two-line orbital elements,

1 16792U 86046B   17015.52422510  .00000064  00000-0  47965-5 0  9990
2 16792  82.4834 346.0470 0025813  76.6581  62.2041 14.83111587652256
Epoch (UTC): 15 January 2017 12:34:53
Eccentricity: 0.0025813
inclination: 82.4834°
perigee height: 601 km
apogee height: 637 km
right ascension of ascending node: 346.0470°
argument of perigee: 76.6581°
revolutions per day: 14.83111587
mean anomaly at epoch: 62.2041°
orbit number at epoch: 65225

The dashed part of the orbit path shows where the satellite is in the earth's shadow,  

DLR